Погода в Палмасе

Бразилия     10°10′09″S   48°19′55″W
темп.,
°C
ветер,
м/с
пор.,
м/с
влажн.,
%
обл.,
%
осадки,
мм/ч
давл.,
гПа
погр.,
м
19 сентября, вс
вс1900:00+27ссв11265 0.0 101011
03:00+26вюв11286 0.0 100911
06:00+25вюв22315 0.0 101117
09:00+33в46195 0.0 1013972
12:00+38в23140 0.0 10103435
15:00+39в23131 0.0 10073858
18:00+34вюв22174 0.0 100714
21:00+30всв22215 0.0 100940
20 сентября, пн
пн2000:00+28вюв112386 0.0 100912
03:00+27в222553 0.0 100830
06:00+25в332849 0.0 101058
09:00+34всв581591 0.0 10121074
12:00+39всв431158 0.0 10103560
15:00+41в23853 0.0 10064301
18:00+34ю111211 0.0 100611
21:00+31св221544 0.0 100912
21 сентября, вт
вт2100:00+29всв121765 0.0 100912
03:00+27св36186 0.0 1008139
06:00+25в362177 0.0 1010135
09:00+34всв591617 0.0 1012767
12:00+38св45145 0.0 10102444
15:00+40вюв341121 0.0 10064260
18:00+35ссв22155 0.0 100612
21:00+31св11189 0.0 100811
22 сентября, ср
ср2200:00+31всв111871 0.0 100711
03:00+29всв222179 0.0 100620
06:00+26всв23265 0.0 100855
09:00+34с58255 0.0 10091026
12:00+40с33174 0.0 10073370
15:00+42всв24138 0.0 10044414
18:00+36св001776 0.0 100411
21:00+32всв2221100 0.0 100715
23 сентября, чт
чт2300:00+31ссв2221100 0.0 100611
03:00+29всв222360 0.0 100513
06:00+28св3427100 0.0 100768
09:00+35ссв692235 0.0 10101182
12:00+40ссв44175 0.0 10083475
15:00+39св331893 0.0 10063425
18:00+35ссв242385 0.0 100689
21:00+31св32293 0.1 100838